Weather Roundup
Issued by NWS Chicago, IL

Home | Current Version | Previous Version | Graphics & Text | Print | Product List | Glossary On
Versions: 1 2 3 4 5 6 7 8 9 10 11 12 13 14 15 16 17 18 19 20 21 22 23 24 25 26 27 28 29 30 31 32 33 34 35 36 37 38 39 40 41 42 43 44 45 46 47 48 49 50
000
NZUS59 KLOT 241903
HRRLOT

CHICAGO AREA WEATHER ROUNDUP
NATIONAL WEATHER SERVICE CHICAGO/ROMEOVILLE IL
200 PM CDT MON APR 24 2017

NOTE: "FAIR" INDICATES FEW OR NO CLOUDS BELOW 12,000 FEET WITH NO
SIGNIFICANT WEATHER AND/OR OBSTRUCTIONS TO VISIBILITY.

* THESE STATIONS ARE NOT UNDER NWS QUALITY CONTROL. THEY ALSO MAY NOT
  REPORT WEATHER SUCH AS PRECIPITATION OR FOG.

ILZ005-006-012>014-019>023-242000-
NORTHEAST ILLINOIS

CITY           SKY/WX    TMP DP  RH WIND       PRES   REMARKS
OHARE          PTSUNNY   72  31  22 SE13      29.90F
MIDWAY         PTSUNNY   71  34  25 E13       29.92F
AURORA         SUNNY     74  33  22 SE16G22   29.90F
LANSING*       CLOUDY    71  38  30 SE8       29.92F
JOLIET*        SUNNY     74  33  22 S9G16     29.90F
WAUKEGAN       SUNNY     64  32  30 SE13      29.92F
DUPAGE AIRPORT SUNNY     72  31  22 SE15      29.89F
WHEELING       SUNNY     70  28  21 SE13      29.92F
KANKAKEE*      SUNNY     75  32  20 E12       29.90F
MORRIS*        MOSUNNY   75  30  19 SE7G17    29.88F
NORTHERLY ISL    N/A     60  38  43 N5          N/A
$$

WIZ051-052-058>065-066-070>072-242000-
SOUTHEAST WISCONSIN

CITY           SKY/WX    TMP DP  RH WIND       PRES   REMARKS
MILWAUKEE      PTSUNNY   65  38  36 SE10      29.93F
KENOSHA*       SUNNY     67  30  25 SE16G23   29.93F
RACINE*        MOSUNNY   64  30  27 S12       29.95F
WAUKESHA       SUNNY     66  34  30 SE12G23   29.92F
WEST BEND      MOSUNNY   64  37  36 SE13      29.91F
$$

INZ001>003-010>013-019-020-242000-
NORTHWEST INDIANA

CITY           SKY/WX    TMP DP  RH WIND       PRES   REMARKS
GARY*          PTSUNNY   66  32  28 CALM      29.93F
MICHIGAN CITY* NOT AVBL
RENSSELAER*    NOT AVBL
VALPARAISO     SUNNY     73  27  18 SE12G20   29.92F
$$

LMZ740>746-242000-
SOUTHERN LAKE MICHIGAN

STATION/POSITION TIME  SKY/WX   TEMP WIND        PRES    VSBY
                                AIR  DIR/SP/G
                 (UTC)          (F)  (DEG/KT/KT) (MB)    (MI)
HARRISON CRIB    1830            49  360/  6/  6   N/A
BURNHAM HARBOR   1900            59   10/  5/  6   N/A
CALUMET HARBOR   1830            58  350/  7/ 10 1013.4F
BURNS HARBOR     1840            52   CALM  /  5 1014.2F
MICHIGAN CITY    1840            69  120/  9/ 13   N/A
$$

ABBREVIATIONS USED IN REMARKS
   TC - TEMPERATURE IN CELSIUS
  WCI - WIND CHILL INDEX
   HX - HEAT INDEX
  VSB - VISIBILITY
$$




USA.gov is the U.S. government's official web portal to all federal, state and local government web resources and services.